User: anonymous   Login
Location: UBC Liquid-Mirror Observatory
(49.2876°N, 122.5728°W)
Time: 22:05:02
(UTC-07:00)
Language:

Cosmos 1743 Rocket - Orbit

View from above orbital plane
View from above orbital plane
View from above satellite
View from above satellite

Ground track
Ground track

The orbit data is extracted from the following two-line orbital elements,

1 16720U 86034B   15211.48577582  .00000150  00000-0  15425-4 0  9990
2 16720 082.5556 162.5718 0019501 206.0795 302.1394 14.83107932577328
Epoch (UTC): 30 July 2015 11:39:31
Eccentricity: 0.0019501
inclination: 82.5556°
perigee height: 606 km
apogee height: 633 km
right ascension of ascending node: 162.5718°
argument of perigee: 206.0795°
revolutions per day: 14.83107932
mean anomaly at epoch: 302.1394°
orbit number at epoch: 57732

The dashed part of the orbit path shows where the satellite is in the earth's shadow,  

DLR